DW4379 Weather Reports


Display with metric or nautical units.
time (UTC)temp
F
wind
direction
speed
MPH
gust
MPH
rain 1hr
in
rain 24hr
in
rain mn
in
humidity
%
barometer
mb
20240625080503 75 87 0.0 2.0 0.00 0.00 0.00 75 1013.5
20240625080003 74 76 1.0 2.0 0.00 0.00 0.00 75 1013.6
20240625075503 75 79 1.0 2.0 0.00 0.00 0.00 75 1013.6
20240625075003 75 84 0.0 2.0 0.00 0.00 0.00 74 1013.6
20240625074503 75 97 0.0 1.0 0.00 0.00 0.00 74 1013.5
20240625074003 75 99 0.0 1.0 0.00 0.00 0.00 75 1013.5
20240625073714 75 97 0.0 1.0 0.00 0.00 0.00 75 1013.5
20240625073004 74 93 0.0 1.0 0.00 0.00 0.00 75 1013.6
20240625072504 74 0 0.0 0.0 0.00 0.00 0.00 75 1013.6
20240625072003 75 0 0.0 0.0 0.00 0.00 0.00 74 1013.6
20240625071504 75 0 0.0 0.0 0.00 0.00 0.00 73 1013.5
20240625071003 76 98 0.0 1.0 0.00 0.00 0.00 72 1013.6
20240625070504 76 99 1.0 2.0 0.00 0.00 0.00 72 1013.6
20240625070005 76 99 1.0 2.0 0.00 0.00 0.00 71 1013.6
20240625065715 76 97 1.0 2.0 0.00 0.00 0.00 71 1013.8
20240625065003 76 95 1.0 2.0 0.00 0.00 0.00 70 1013.9
20240625064714 76 97 1.0 2.0 0.00 0.00 0.00 70 1013.9
20240625064004 76 99 1.0 2.0 0.00 0.00 0.00 69 1013.9
20240625063715 77 97 1.0 2.0 0.00 0.00 0.00 69 1013.9
20240625063005 77 97 2.0 3.0 0.00 0.00 0.00 68 1013.9
20240625062503 77 97 2.0 3.0 0.00 0.00 0.00 68 1013.8
20240625062215 78 96 2.0 3.0 0.00 0.00 0.00 67 1013.8
20240625061503 78 97 1.0 3.0 0.00 0.00 0.00 67 1013.9
20240625061004 78 102 1.0 3.0 0.00 0.00 0.00 66 1013.9
20240625060503 78 100 1.0 2.0 0.00 0.00 0.00 66 1014.0
20240625060003 78 99 1.0 3.0 0.00 0.00 0.00 66 1014.0
20240625055503 78 102 0.0 3.0 0.00 0.00 0.00 66 1014.0
20240625055004 78 0 0.0 0.0 0.00 0.00 0.00 66 1013.9
20240625054503 78 119 0.0 1.0 0.00 0.00 0.00 67 1014.0
20240625054003 78 100 1.0 3.0 0.00 0.00 0.00 67 1014.0
20240625053503 78 97 2.0 3.0 0.00 0.00 0.00 67 1014.1
20240625053214 78 98 2.0 3.0 0.00 0.00 0.00 67 1014.1
20240625052506 78 97 2.0 3.0 0.00 0.00 0.00 67 1014.1
20240625052214 78 97 2.0 5.0 0.00 0.00 0.00 67 1014.2
20240625051504 78 97 1.0 5.0 0.00 0.00 0.00 67 1014.0
20240625051005 78 99 1.0 3.0 0.00 0.00 0.00 66 1014.1
20240625050504 78 103 1.0 2.0 0.00 0.00 0.00 66 1014.1
20240625050003 78 103 0.0 2.0 0.00 0.00 0.00 66 1014.1
20240625045503 79 99 0.0 2.0 0.00 0.00 0.00 66 1014.1
20240625045003 79 115 0.0 1.0 0.00 0.00 0.00 66 1014.1
20240625044504 79 105 0.0 2.0 0.00 0.00 0.00 66 1014.3
20240625044004 79 104 0.0 2.0 0.00 0.00 0.00 66 1014.3
20240625043505 79 0 0.0 0.0 0.00 0.00 0.00 66 1014.3
20240625043214 79 0 0.0 0.0 0.00 0.00 0.00 66 1014.2
20240625042503 79 0 0.0 0.0 0.00 0.00 0.00 66 1014.3
20240625042004 79 0 0.0 0.0 0.00 0.00 0.00 66 1014.2
20240625041715 79 0 0.0 0.0 0.00 0.00 0.00 66 1014.2
20240625041004 79 0 0.0 0.0 0.00 0.00 0.00 66 1014.1
20240625040505 79 0 0.0 0.0 0.00 0.00 0.00 65 1014.1
20240625040226 80 0 0.0 0.0 0.00 0.00 0.00 66 1014.1
20240625035503 80 0 0.0 0.0 0.00 0.00 0.00 65 1014.2
20240625035005 80 0 0.0 0.0 0.00 0.00 0.00 65 1014.2
20240625034504 80 0 0.0 0.0 0.00 0.00 0.00 65 1014.2
20240625034004 80 0 0.0 0.0 0.00 0.00 0.00 65 1014.1
20240625033505 80 135 0.0 1.0 0.00 0.00 0.00 65 1014.1
20240625033004 80 138 0.0 1.0 0.00 0.00 0.00 65 1014.0
20240625032714 80 126 0.0 1.0 0.00 0.00 0.00 65 1014.0
20240625032004 80 108 0.0 1.0 0.00 0.00 0.00 65 1013.8
20240625031505 80 97 1.0 3.0 0.00 0.00 0.00 65 1013.8
20240625031004 80 99 1.0 3.0 0.00 0.00 0.00 65 1013.8
20240625030505 80 101 1.0 3.0 0.00 0.00 0.00 65 1013.8
20240625030003 81 101 0.0 2.0 0.00 0.00 0.00 65 1013.6
20240625025503 81 97 1.0 2.0 0.00 0.00 0.00 65 1013.7
20240625025003 81 94 1.0 4.0 0.00 0.00 0.00 64 1013.8
20240625024503 81 95 0.0 4.0 0.00 0.00 0.00 64 1013.9
20240625024003 81 101 0.0 2.0 0.00 0.00 0.00 64 1013.9
20240625023714 81 106 0.0 2.0 0.00 0.00 0.00 64 1013.9
20240625023003 81 101 0.0 2.0 0.00 0.00 0.00 63 1013.8
20240625022714 81 95 1.0 2.0 0.00 0.00 0.00 63 1013.9
20240625022003 81 98 1.0 2.0 0.00 0.00 0.00 63 1013.9
20240625021505 82 99 1.0 2.0 0.00 0.00 0.00 63 1013.9
20240625021004 82 96 1.0 3.0 0.00 0.00 0.00 62 1013.9
20240625020503 82 95 1.0 3.0 0.00 0.00 0.00 62 1013.8
20240625020003 82 96 0.0 2.0 0.00 0.00 0.00 62 1013.8
20240625015503 83 0 0.0 0.0 0.00 0.00 0.00 61 1013.7
20240625015213 83 0 0.0 0.0 0.00 0.00 0.00 61 1013.7
20240625014504 83 0 0.0 0.0 0.00 0.00 0.00 61 1013.6
20240625014003 83 0 0.0 0.0 0.00 0.00 0.00 61 1013.6
20240625013506 83 0 0.0 0.0 0.00 0.00 0.00 60 1013.5
20240625013003 84 92 0.0 1.0 0.00 0.00 0.00 60 1013.6
20240625012504 84 92 0.0 1.0 0.00 0.00 0.00 60 1013.5
20240625012004 84 84 0.0 1.0 0.00 0.00 0.00 59 1013.5
20240625011504 84 84 0.0 1.0 0.00 0.00 0.00 59 1013.5
20240625011004 84 95 0.0 1.0 0.00 0.00 0.00 58 1013.5
20240625010503 84 98 0.0 2.0 0.00 0.00 0.00 58 1013.6
20240625010003 85 99 0.0 2.0 0.00 0.00 0.00 58 1013.6
20240625005715 85 101 0.0 2.0 0.00 0.00 0.00 58 1013.5
20240625005003 85 160 0.0 1.0 0.00 0.00 0.00 56 1013.6
20240625004503 85 182 0.0 1.0 0.00 0.00 0.00 56 1013.8
20240625004008 85 182 0.0 1.0 0.00 0.00 0.00 56 1013.8
20240625003503 85 0 0.0 0.0 0.00 0.00 0.00 56 1013.9
20240625003005 86 0 0.0 0.0 0.00 0.00 0.00 56 1014.0
20240625002504 86 0 0.0 0.0 0.00 0.00 0.00 56 1014.1
20240625002003 86 0 0.0 0.0 0.00 0.00 0.00 56 1014.1
20240625001503 86 0 0.0 0.0 0.00 0.00 0.00 56 1014.1
20240625001003 86 192 0.0 2.0 0.00 0.00 0.00 55 1014.0
20240625000713 86 212 0.0 2.0 0.00 0.00 0.00 55 1014.1
20240625000004 86 127 0.0 3.0 0.00 0.00 0.00 55 1014.1
20240624235713 86 110 0.0 3.0 0.00 0.00 0.00 55 1014.1
20240624235003 86 212 0.0 2.0 0.00 0.00 0.00 55 1014.1
20240624234713 86 206 0.0 2.0 0.00 0.00 0.00 54 1014.1
20240624234004 87 100 0.0 1.0 0.00 0.00 0.00 55 1014.1
20240624233503 87 108 0.0 1.0 0.00 0.00 0.00 55 1014.1
20240624233005 87 141 0.0 1.0 0.00 0.00 0.00 54 1014.1
20240624232503 87 199 0.0 2.0 0.00 0.00 0.00 54 1014.2
20240624232003 87 155 0.0 2.0 0.00 0.00 0.00 54 1014.2
20240624231503 87 179 0.0 3.0 0.00 0.00 0.00 54 1014.3
20240624231003 87 203 0.0 3.0 0.00 0.00 0.00 54 1014.2
20240624230504 87 143 0.0 2.0 0.00 0.00 0.00 53 1014.3
20240624230004 87 144 0.0 2.0 0.00 0.00 0.00 52 1014.3
20240624225503 87 0 0.0 0.0 0.00 0.00 0.00 53 1014.4
20240624225005 87 119 0.0 2.0 0.00 0.00 0.00 55 1014.4
20240624224504 87 130 0.0 2.0 0.00 0.00 0.00 54 1014.3
20240624224004 87 97 0.0 3.0 0.00 0.00 0.00 53 1014.4
20240624223503 87 92 1.0 4.0 0.00 0.00 0.00 53 1014.4
20240624223003 87 104 1.0 4.0 0.00 0.00 0.00 52 1014.5
20240624222505 88 97 1.0 4.0 0.00 0.00 0.00 52 1014.5
20240624222004 87 117 1.0 4.0 0.00 0.00 0.00 52 1014.6
20240624221503 87 210 1.0 3.0 0.00 0.00 0.00 51 1014.6
20240624221003 87 179 1.0 3.0 0.00 0.00 0.00 50 1014.7
20240624220506 88 112 0.0 3.0 0.00 0.00 0.00 52 1014.7
20240624220004 87 58 1.0 2.0 0.00 0.00 0.00 52 1014.7
20240624215503 87 106 1.0 4.0 0.00 0.00 0.00 51 1014.9
20240624215003 88 117 1.0 4.0 0.00 0.00 0.00 51 1014.9
20240624214504 87 95 2.0 4.0 0.00 0.00 0.00 51 1014.9
20240624214003 87 97 2.0 5.0 0.00 0.00 0.00 50 1014.9
20240624213503 88 102 2.0 5.0 0.00 0.00 0.00 50 1015.0
20240624213004 88 118 1.0 4.0 0.00 0.00 0.00 50 1015.0
20240624212504 88 148 0.0 3.0 0.00 0.00 0.00 50 1015.1
20240624212003 88 223 0.0 2.0 0.00 0.00 0.00 51 1015.1
20240624211504 88 223 0.0 2.0 0.00 0.00 0.00 50 1015.2
20240624211003 88 154 0.0 2.0 0.00 0.00 0.00 52 1015.2
20240624210505 88 105 0.0 1.0 0.00 0.00 0.00 52 1015.3
20240624210003 88 126 1.0 3.0 0.00 0.00 0.00 50 1015.2
20240624205503 88 133 1.0 3.0 0.00 0.00 0.00 53 1015.2
20240624205003 87 126 1.0 4.0 0.00 0.00 0.00 51 1015.2
20240624204504 87 108 1.0 4.0 0.00 0.00 0.00 52 1015.3
20240624204003 87 102 1.0 5.0 0.00 0.00 0.00 51 1015.3
20240624203503 87 126 0.0 5.0 0.00 0.00 0.00 52 1015.3
20240624203213 87 216 0.0 4.0 0.00 0.00 0.00 52 1015.4
20240624202504 87 188 1.0 4.0 0.00 0.00 0.00 51 1015.4
20240624202003 87 92 1.0 6.0 0.00 0.00 0.00 52 1015.3
20240624201503 87 112 1.0 6.0 0.00 0.00 0.00 53 1015.4
20240624201003 87 104 2.0 4.0 0.00 0.00 0.00 51 1015.4
20240624200713 87 99 2.0 4.0 0.00 0.00 0.00 52 1015.5
20240624200003 87 95 2.0 6.0 0.00 0.00 0.00 52 1015.5
20240624195503 87 105 1.0 6.0 0.00 0.00 0.00 52 1015.4
20240624195004 87 153 1.0 3.0 0.00 0.00 0.00 52 1015.5
20240624194503 87 144 1.0 3.0 0.00 0.00 0.00 51 1015.6
20240624194004 87 88 0.0 4.0 0.00 0.00 0.00 52 1015.6
20240624193713 87 116 1.0 4.0 0.00 0.00 0.00 52 1015.6
20240624193004 87 182 0.0 3.0 0.00 0.00 0.00 52 1015.7
20240624192503 87 188 1.0 3.0 0.00 0.00 0.00 52 1015.7
20240624192004 87 154 1.0 3.0 0.00 0.00 0.00 53 1015.7
20240624191503 87 105 3.0 6.0 0.00 0.00 0.00 52 1015.7
20240624191003 87 107 2.0 6.0 0.00 0.00 0.00 53 1015.6
20240624190505 87 130 1.0 3.0 0.00 0.00 0.00 54 1015.7
20240624190003 87 99 1.0 3.0 0.00 0.00 0.00 53 1015.7
20240624185503 87 113 1.0 3.0 0.00 0.00 0.00 52 1015.7
20240624185220 87 117 2.0 3.0 0.00 0.00 0.00 53 1015.8
20240624184504 86 108 1.0 4.0 0.00 0.00 0.00 54 1015.9
20240624184003 86 116 1.0 4.0 0.00 0.00 0.00 53 1016.0
20240624183505 86 158 1.0 3.0 0.00 0.00 0.00 54 1016.0
20240624183004 86 66 1.0 3.0 0.00 0.00 0.00 54 1016.1
20240624182503 86 91 2.0 5.0 0.00 0.00 0.00 54 1016.1
20240624182004 85 99 3.0 6.0 0.00 0.00 0.00 53 1016.0
20240624181503 86 110 1.0 6.0 0.00 0.00 0.00 51 1016.1
20240624181214 86 85 1.0 5.0 0.00 0.00 0.00 52 1016.0
20240624180503 86 66 2.0 4.0 0.00 0.00 0.00 53 1016.1
20240624180003 85 59 1.0 4.0 0.00 0.00 0.00 52 1016.2
20240624175504 85 156 1.0 4.0 0.00 0.00 0.00 54 1016.3
20240624175004 85 161 1.0 6.0 0.00 0.00 0.00 53 1016.3
20240624174503 85 124 1.0 6.0 0.00 0.00 0.00 52 1016.4
20240624174003 85 107 1.0 3.0 0.00 0.00 0.00 54 1016.3
20240624173713 85 80 1.0 4.0 0.00 0.00 0.00 54 1016.4
20240624173005 84 54 1.0 4.0 0.00 0.00 0.00 54 1016.3
20240624172503 84 16 1.0 3.0 0.00 0.00 0.00 55 1016.4
20240624172003 84 85 1.0 4.0 0.00 0.00 0.00 55 1016.4
20240624171505 84 124 1.0 4.0 0.00 0.00 0.00 55 1016.4
20240624171004 84 113 2.0 4.0 0.00 0.00 0.00 55 1016.5
20240624170508 83 96 1.0 4.0 0.00 0.00 0.00 57 1016.4
20240624170004 83 255 0.0 1.0 0.00 0.00 0.00 57 1016.5
20240624165503 83 84 1.0 3.0 0.00 0.00 0.00 58 1016.6
20240624165213 83 105 1.0 3.0 0.00 0.00 0.00 59 1016.5
20240624164503 82 131 0.0 3.0 0.00 0.00 0.00 59 1016.6
20240624164003 82 67 1.0 4.0 0.00 0.00 0.00 58 1016.6
20240624163503 82 65 2.0 6.0 0.00 0.00 0.00 59 1016.5
20240624163004 82 74 2.0 6.0 0.00 0.00 0.00 58 1016.5
20240624162504 82 38 1.0 5.0 0.00 0.00 0.00 59 1016.5
20240624162004 82 349 1.0 5.0 0.00 0.00 0.00 59 1016.4
20240624161503 82 68 2.0 6.0 0.00 0.00 0.00 61 1016.5
20240624161004 81 74 2.0 6.0 0.00 0.00 0.00 62 1016.5
20240624160505 81 74 2.0 5.0 0.00 0.00 0.00 62 1016.5
20240624160004 81 88 2.0 5.0 0.00 0.00 0.00 62 1016.5
20240624155503 81 99 2.0 6.0 0.00 0.00 0.00 63 1016.6
20240624155215 81 102 3.0 6.0 0.00 0.00 0.00 64 1016.6
20240624154504 80 98 2.0 7.0 0.00 0.00 0.00 64 1016.7
20240624154003 80 122 1.0 7.0 0.00 0.00 0.00 63 1016.7
20240624153504 80 155 1.0 3.0 0.00 0.00 0.00 64 1016.6
20240624153215 80 135 1.0 4.0 0.00 0.00 0.00 64 1016.6
20240624152506 80 98 1.0 5.0 0.00 0.00 0.00 64 1016.5
20240624152004 80 86 1.0 3.0 0.00 0.00 0.00 65 1016.5
20240624151504 79 78 1.0 5.0 0.00 0.00 0.00 66 1016.6
20240624151004 79 75 2.0 5.0 0.00 0.00 0.00 66 1016.6
20240624150503 79 77 2.0 5.0 0.00 0.00 0.00 66 1016.7
20240624150003 78 51 1.0 3.0 0.00 0.00 0.00 67 1016.8
20240624145503 78 6 1.0 3.0 0.00 0.00 0.00 67 1016.8
20240624145003 78 54 1.0 3.0 0.00 0.00 0.00 67 1016.8
20240624144505 78 90 1.0 4.0 0.00 0.00 0.00 68 1016.7
20240624144217 78 91 1.0 4.0 0.00 0.00 0.00 68 1016.8
20240624143713 78 90 1.0 4.0 0.00 0.00 0.00 68 1016.8
20240624143005 78 84 2.0 6.0 0.00 0.00 0.00 69 1016.7
20240624142503 77 87 2.0 6.0 0.00 0.00 0.00 69 1016.7
20240624142214 77 82 2.0 5.0 0.00 0.00 0.00 68 1016.7
20240624141504 77 89 1.0 5.0 0.00 0.00 0.00 70 1016.7
20240624141003 77 115 0.0 3.0 0.00 0.00 0.00 72 1016.7
20240624140504 76 136 0.0 3.0 0.00 0.00 0.00 71 1016.7
20240624140003 76 170 0.0 3.0 0.00 0.00 0.00 74 1016.8
20240624135505 76 145 0.0 2.0 0.00 0.00 0.00 75 1016.8
20240624135003 76 118 0.0 2.0 0.00 0.00 0.00 75 1016.7
20240624134713 76 147 0.0 2.0 0.00 0.00 0.00 75 1016.7
20240624134005 76 186 0.0 2.0 0.00 0.00 0.00 77 1016.7
20240624133715 75 186 0.0 2.0 0.00 0.00 0.00 77 1016.6
20240624133003 75 0 0.0 0.0 0.00 0.00 0.00 79 1016.6
20240624132503 75 0 0.0 0.0 0.00 0.00 0.00 79 1016.5
20240624132003 75 0 0.0 0.0 0.00 0.00 0.00 79 1016.5
20240624131503 74 94 0.0 3.0 0.00 0.00 0.00 80 1016.5
20240624131004 74 97 0.0 3.0 0.00 0.00 0.00 76 1016.5
20240624130505 74 101 0.0 3.0 0.00 0.00 0.00 78 1016.5
20240624130004 74 99 0.0 1.0 0.00 0.00 0.00 81 1016.5
20240624125503 74 99 0.0 1.0 0.00 0.00 0.00 81 1016.5
20240624125005 73 99 0.0 2.0 0.00 0.00 0.00 81 1016.4
20240624124503 73 100 0.0 2.0 0.00 0.00 0.00 81 1016.3
20240624124004 73 101 0.0 1.0 0.00 0.00 0.00 83 1016.2
20240624123503 73 101 0.0 1.0 0.00 0.00 0.00 83 1016.2
20240624123003 72 99 0.0 2.0 0.00 0.00 0.00 85 1016.2
20240624122504 72 99 0.0 2.0 0.00 0.00 0.00 85 1016.2
20240624122004 72 109 0.0 1.0 0.00 0.00 0.00 85 1016.2
20240624121712 72 0 0.0 0.0 0.00 0.00 0.00 86 1016.1
20240624121005 71 0 0.0 0.0 0.00 0.00 0.00 88 1016.1
20240624120506 71 0 0.0 0.0 0.00 0.00 0.00 88 1016.1
20240624120003 70 0 0.0 0.0 0.00 0.00 0.00 89 1016.0
20240624115504 70 0 0.0 0.0 0.00 0.00 0.00 91 1016.0
20240624115003 69 0 0.0 0.0 0.00 0.00 0.00 91 1015.8
20240624114503 69 0 0.0 0.0 0.00 0.00 0.00 91 1015.8
20240624114004 68 0 0.0 0.0 0.00 0.00 0.00 92 1015.7
20240624113503 68 0 0.0 0.0 0.00 0.00 0.00 91 1015.6
20240624113004 68 0 0.0 0.0 0.00 0.00 0.00 91 1015.6
20240624112714 68 0 0.0 0.0 0.00 0.00 0.00 91 1015.6
20240624112003 67 0 0.0 0.0 0.00 0.00 0.00 92 1015.5
20240624111504 67 0 0.0 0.0 0.00 0.00 0.00 91 1015.5
20240624111004 67 0 0.0 0.0 0.00 0.00 0.00 91 1015.4
20240624110504 67 0 0.0 0.0 0.00 0.00 0.00 91 1015.3
20240624110003 67 0 0.0 0.0 0.00 0.00 0.00 91 1015.2
20240624105504 67 0 0.0 0.0 0.00 0.00 0.00 92 1015.1
20240624105003 67 0 0.0 0.0 0.00 0.00 0.00 91 1015.0
20240624104503 67 0 0.0 0.0 0.00 0.00 0.00 91 1015.1
20240624104003 67 0 0.0 0.0 0.00 0.00 0.00 91 1015.0
20240624103714 67 0 0.0 0.0 0.00 0.00 0.00 91 1015.0
20240624103003 67 0 0.0 0.0 0.00 0.00 0.00 91 1014.9
20240624102504 67 0 0.0 0.0 0.00 0.00 0.00 91 1014.9
20240624102006 67 0 0.0 0.0 0.00 0.01 0.00 91 1014.9
20240624101503 67 0 0.0 0.0 0.00 0.02 0.00 91 1014.7
20240624101005 67 0 0.0 0.0 0.00 0.03 0.00 90 1014.6
20240624100504 67 0 0.0 0.0 0.00 0.04 0.00 90 1014.6
20240624100004 67 0 0.0 0.0 0.00 0.05 0.00 90 1014.5
20240624095714 67 0 0.0 0.0 0.00 0.05 0.00 90 1014.5
20240624095004 67 0 0.0 0.0 0.00 0.06 0.00 90 1014.6
20240624094504 67 0 0.0 0.0 0.00 0.07 0.00 89 1014.6
20240624094003 67 0 0.0 0.0 0.00 0.07 0.00 89 1014.6
20240624093713 67 0 0.0 0.0 0.00 0.07 0.00 89 1014.5
20240624093213 68 0 0.0 0.0 0.00 0.08 0.00 89 1014.5
20240624092503 68 0 0.0 0.0 0.00 0.08 0.00 89 1014.4
20240624092212 68 0 0.0 0.0 0.00 0.08 0.00 89 1014.3
20240624091504 68 0 0.0 0.0 0.00 0.10 0.00 88 1014.2
20240624091003 68 0 0.0 0.0 0.00 0.11 0.00 88 1014.3
20240624090503 68 0 0.0 0.0 0.00 0.11 0.00 88 1014.3
20240624090214 68 0 0.0 0.0 0.00 0.11 0.00 88 1014.3
20240624085505 69 0 0.0 0.0 0.00 0.11 0.00 87 1014.2
20240624085003 69 0 0.0 0.0 0.00 0.11 0.00 87 1014.2
20240624084713 69 0 0.0 0.0 0.00 0.12 0.00 86 1014.2
20240624084003 69 0 0.0 0.0 0.00 0.12 0.00 86 1014.0
20240624083504 69 0 0.0 0.0 0.00 0.12 0.00 85 1014.0
20240624083003 69 0 0.0 0.0 0.00 0.12 0.00 85 1014.0
20240624082713 69 0 0.0 0.0 0.00 0.12 0.00 85 1014.0
20240624082003 69 0 0.0 0.0 0.00 0.12 0.00 85 1014.0
20240624081503 70 0 0.0 0.0 0.00 0.12 0.00 84 1014.0
20240624081004 70 0 0.0 0.0 0.00 0.12 0.00 84 1014.0